Date,TemperatureHighF,TemperatureAvgF,TemperatureLowF,DewpointHighF,DewpointAvgF,DewpointLowF,HumidityHigh,HumidityAvg,HumidityLow,PressureMaxIn,PressureMinIn,WindSpeedMaxMPH,WindSpeedAvgMPH,GustSpeedMaxMPH,PrecipitationSumIn
2013-9-1,67,57,50,-100,-100,-100,0,0,100,0.00,40.00,0,-999,0,0.00
2013-9-2,64,56,53,-100,-100,-100,0,0,100,0.00,40.00,0,-999,0,0.00
2013-9-3,65,56,52,-100,-100,-100,0,0,100,0.00,40.00,0,-999,0,0.00
2013-9-4,65,58,50,-100,-100,-100,0,0,100,0.00,40.00,0,-999,0,0.00
2013-9-5,65,57,51,-100,-100,-100,0,0,100,0.00,40.00,0,-999,0,0.00
2013-9-6,68,57,49,-100,-100,-100,0,0,100,0.00,40.00,0,-999,0,0.00
2013-9-7,68,58,44,-100,-100,-100,0,0,100,0.00,40.00,0,-999,0,0.00
2013-9-8,69,56,44,-100,-100,-100,0,0,100,0.00,40.00,0,-999,0,0.00
2013-9-9,69,57,47,-100,-100,-100,0,0,100,0.00,40.00,0,-999,0,0.00
2013-9-10,70,56,45,-100,-100,-100,0,0,100,0.00,40.00,0,-999,0,0.00
2013-9-11,63,55,46,-100,-100,-100,0,0,100,0.00,40.00,0,-999,0,0.00
2013-9-12,65,54,47,-100,-100,-100,0,0,100,0.00,40.00,0,-999,0,0.00
2013-9-13,67,55,46,-100,-100,-100,0,0,100,0.00,40.00,0,-999,0,0.00
2013-9-14,69,55,47,-100,-100,-100,0,0,100,0.00,40.00,0,-999,0,0.00
2013-9-15,66,56,47,-100,-100,-100,0,0,100,0.00,40.00,0,-999,0,0.00
2013-9-16,67,56,52,-100,-100,-100,0,0,100,0.00,40.00,0,-999,0,0.00
2013-9-17,56,48,39,-100,-100,-100,0,0,100,0.00,40.00,0,-999,0,0.00
2013-9-18,47,38,33,-100,-100,-100,0,0,100,0.00,40.00,0,-999,0,0.01
2013-9-19,66,51,38,-100,-100,-100,0,0,100,0.00,40.00,0,-999,0,0.00
2013-9-20,61,51,42,-100,-100,-100,0,0,100,0.00,40.00,0,-999,0,0.01
2013-9-21,45,39,31,-100,-100,-100,0,0,100,0.00,40.00,0,-999,0,0.01
2013-9-22,48,38,29,-100,-100,-100,0,0,100,0.00,40.00,0,-999,0,0.01
2013-9-23,60,46,33,-100,-100,-100,0,0,100,0.00,40.00,0,-999,0,0.01
2013-9-24,54,47,41,-100,-100,-100,0,0,100,0.00,40.00,0,-999,0,0.01
2013-9-25,43,35,30,-100,-100,-100,0,0,100,0.00,40.00,0,-999,0,0.00
2013-9-26,41,32,27,-100,-100,-100,0,0,100,0.00,40.00,0,-999,0,0.00
2013-9-27,50,37,29,-100,-100,-100,0,0,100,0.00,40.00,0,-999,0,0.01
2013-9-28,55,44,34,-100,-100,-100,0,0,100,0.00,40.00,0,-999,0,0.01
2013-9-30,52,46,42,-100,-100,-100,0,0,100,0.00,40.00,0,-999,0,0.00